This demonstration page uses our WeatherBlox Daily Observations layout. Learn more.

Left ArrowRight Arrow

Hourly Observations for May 26, 2017

Temp ( °F °C ) Dew Point ( °F °C ) Humidity (%) Winds ( mph kmh ) Pressure ( in mb ) Visibility ( mi km ) Precip ( " mm )
12:15 am 00:15 Clear 62 16.7 57 14 84 84 N 3 6 29.62 1003 10 16 N/A
12:35 am 00:35 Clear with Nearby Thunderstorms 62 16.5 57 14 85 85 NW 3 6 29.62 1003 10 16 N/A
12:55 am 00:55 Clear 62 16.5 57 13.7 84 84 WNW 5 7 29.62 1003 10 16 N/A
1:15 am 01:15 Clear 62 16.5 57 13.8 84 84 NW 7 11 29.62 1003 10 16 N/A
1:35 am 01:35 Clear 62 16.4 56 13.2 82 82 NW 6 9 29.65 1004 10 16 N/A
1:55 am 01:55 Clear 61 16.1 55 13 82 82 WNW 5 7 29.65 1004 10 16 N/A
2:15 am 02:15 Partly Cloudy 60 15.6 55 13 85 85 NW 6 9 29.65 1004 10 16 N/A
2:35 am 02:35 Clear 62 16.4 55 13 80 80 NW 6 9 29.65 1004 10 16 N/A
2:55 am 02:55 Clear 61 16.1 55 12.6 80 80 E 5 7 29.62 1003 10 16 N/A
3:15 am 03:15 Clear 59 14.8 55 12.6 87 87 N 7 11 29.65 1004 10 16 N/A
3:35 am 03:35 Clear 59 14.8 55 12.5 86 86 N 5 7 29.65 1004 10 16 N/A
3:55 am 03:55 Clear 58 14.7 54 12.1 85 85 WNW 7 11 29.68 1005 10 16 N/A
4:15 am 04:15 Clear 58 14.6 55 12.5 87 87 WNW 7 11 29.71 1006 10 16 N/A
4:35 am 04:35 Clear 58 14.5 54 12.2 86 86 WNW 7 11 29.71 1006 10 16 N/A
4:55 am 04:55 Clear 58 14.4 54 12.1 86 86 NW 7 11 29.71 1006 10 16 N/A
5:15 am 05:15 Clear 58 14.2 54 12.1 87 87 NW 6 9 29.74 1007 10 16 N/A
5:35 am 05:35 Clear 58 14.3 54 12 86 86 NNW 12 19 29.74 1007 10 16 N/A
5:55 am 05:55 Clear 58 14.5 49 9.4 72 72 N 14 22 29.74 1007 10 16 N/A
6:15 am 06:15 Sunny 56 13.5 46 7.8 69 69 N 15 24 29.77 1008 10 16 N/A
6:35 am 06:35 Sunny 55 13 44 6.8 66 66 N 17 28 29.77 1008 10 16 N/A
6:55 am 06:55 Sunny 55 13 44 6.5 65 65 N 16 26 29.77 1008 10 16 N/A
7:15 am 07:15 Sunny 55 12.9 43 6.3 64 64 N 14 22 29.80 1009 10 16 N/A
7:35 am 07:35 Sunny 56 13.5 43 6.1 61 61 N 14 22 29.80 1009 10 16 N/A
7:55 am 07:55 Sunny 57 14 43 6 59 59 N 15 24 29.83 1010 10 16 N/A
8:15 am 08:15 Sunny 58 14.5 43 6.1 57 57 N 18 30 29.80 1009 10 16 N/A
8:35 am 08:35 Sunny 59 15.1 43 6.1 55 55 N 23 37 29.80 1009 10 16 N/A
8:55 am 08:55 Mostly Cloudy 61 15.9 43 6.1 52 52 N 18 30 29.80 1009 10 16 N/A
9:15 am 09:15 Mostly Cloudy 60 15.8 42 5.8 52 52 N 16 26 29.80 1009 10 16 N/A
9:35 am 09:35 Partly Cloudy 62 16.4 43 6.1 51 51 N 17 28 29.83 1010 10 16 N/A
9:55 am 09:55 Partly Cloudy 62 16.9 42 5.8 48 48 N 17 28 29.83 1010 10 16 N/A
10:15 am 10:15 Sunny 63 17 43 6 49 49 N 16 26 29.83 1010 10 16 N/A
10:35 am 10:35 Sunny 63 17.2 42 5.8 47 47 N 15 24 29.83 1010 10 16 N/A
10:55 am 10:55 Partly Cloudy 64 17.7 43 6.2 47 47 N 15 24 29.83 1010 10 16 N/A
11:15 am 11:15 Partly Cloudy 64 17.5 43 5.9 47 47 N 14 22 29.83 1010 10 16 N/A
11:35 am 11:35 Mostly Cloudy 65 18.3 44 6.4 46 46 N 12 19 29.85 1011 10 16 N/A
11:55 am 11:55 Cloudy 65 18.4 43 6.3 45 45 NNE 9 15 29.85 1011 10 16 N/A
12:15 pm 12:15 Partly Cloudy 67 19.7 45 7.1 44 44 N 7 11 29.83 1010 10 16 N/A
12:35 pm 12:35 Sunny 68 20.2 44 6.6 41 41 N 13 20 29.83 1010 10 16 N/A
12:55 pm 12:55 Sunny 69 20.6 45 7.1 42 42 N 9 15 29.83 1010 10 16 N/A
1:15 pm 13:15 Sunny 70 21.1 44 6.7 39 39 N 8 13 29.83 1010 10 16 N/A
1:55 pm 13:55 Sunny 71 21.7 46 7.5 40 40 ENE 10 17 29.80 1009 10 16 N/A
2:15 pm 14:15 Sunny 72 22 45 7.2 39 39 NE 10 17 29.77 1008 10 16 N/A
2:35 pm 14:35 Sunny 73 22.6 45 7.3 37 37 N 7 11 29.77 1008 10 16 N/A
2:55 pm 14:55 Sunny 72 22.3 44 6.9 37 37 ENE 3 6 29.77 1008 10 16 N/A
3:15 pm 15:15 Sunny 73 23 46 7.7 38 38 ESE 3 6 29.77 1008 10 16 N/A
3:35 pm 15:35 Sunny 73 22.8 45 7.4 37 37 NNE 6 9 29.77 1008 10 16 N/A
3:55 pm 15:55 Sunny 73 22.9 44 6.8 36 36 N N/A 29.77 1008 10 16 N/A
4:15 pm 16:15 Sunny 74 23.1 45 7.1 36 36 N 5 7 29.74 1007 10 16 N/A
4:35 pm 16:35 Sunny 74 23.4 44 6.5 34 34 N N/A 29.74 1007 10 16 N/A
4:55 pm 16:55 Sunny 74 23.6 45 7.2 35 35 ENE 5 7 29.74 1007 10 16 N/A
5:15 pm 17:15 Sunny 75 23.8 45 7.3 35 35 E 7 11 29.74 1007 10 16 N/A
5:35 pm 17:35 Sunny 75 23.7 45 7 34 34 N N/A 29.74 1007 10 16 N/A
5:55 pm 17:55 Sunny 75 24.1 44 6.9 33 33 ESE 7 11 29.74 1007 10 16 N/A
6:15 pm 18:15 Sunny 76 24.2 45 7.1 33 33 ESE 8 13 29.74 1007 10 16 N/A
6:35 pm 18:35 Sunny 75 24 44 6.9 33 33 ESE 7 11 29.74 1007 10 16 N/A
6:55 pm 18:55 Sunny 76 24.2 44 6.4 32 32 SE 9 15 29.71 1006 10 16 N/A
7:15 pm 19:15 Sunny 75 23.7 44 6.9 34 34 E 7 11 29.74 1007 10 16 N/A
7:35 pm 19:35 Sunny 73 22.8 45 7.4 37 37 E 12 19 29.74 1007 10 16 N/A
7:55 pm 19:55 Sunny 72 22 46 7.8 40 40 E 6 9 29.71 1006 7 11 N/A
8:15 pm 20:15 Sunny 71 21.6 46 7.9 41 41 E 8 13 29.74 1007 10 16 N/A
8:35 pm 20:35 Sunny 69 20.7 47 8.3 45 45 E 7 11 29.77 1008 10 16 N/A
8:55 pm 20:55 Sunny 68 20.1 47 8.1 46 46 E 7 11 29.77 1008 10 16 N/A
9:15 pm 21:15 Clear 67 19.2 48 8.9 51 51 E 5 7 29.77 1008 10 16 N/A
9:35 pm 21:35 Clear 65 18.4 49 9.2 55 55 N N/A 29.80 1009 10 16 N/A
9:55 pm 21:55 Clear 65 18.3 48 9 55 55 N N/A 29.80 1009 10 16 N/A
10:15 pm 22:15 Clear 64 17.8 48 9 57 57 NNW 3 6 29.85 1011 10 16 N/A
10:35 pm 22:35 Clear 64 17.7 48 9.1 57 57 N N/A 29.85 1011 10 16 N/A
10:55 pm 22:55 Clear 63 17 49 9.6 62 62 ENE 5 7 29.85 1011 10 16 N/A
11:15 pm 23:15 Clear 63 17.1 49 9.3 60 60 ENE 3 6 29.85 1011 10 16 N/A
11:35 pm 23:35 Clear 64 17.6 49 9.5 59 59 E 6 9 29.85 1011 10 16 N/A
11:55 pm 23:55 Partly Cloudy 63 17.4 49 9.6 60 60 E 9 15 29.85 1011 10 16 N/A

Powered by AerisWeather